#timestamp,LO_Frequency,Hit,StdDev 
1547179215.1,286047000.7,N
1547179216.0,286047000.7,N
1547179235.8,286047001.5,N
1547179255.7,286047002.1,N
1547179275.5,286046998.9,N
1547179295.3,286046998.9,N
1547179315.2,286046997.0,N
1547179335.0,286046996.8,N
1547179335.9,286046996.8,N
1547179355.7,286046997.6,N
1547179375.6,286046997.6,N
1547179395.4,286046996.8,N
1547179415.3,286046997.8,N
1547179435.1,286046995.8,N
1547179455.8,286046996.3,N
1547179475.7,286046995.6,N
1547179495.5,286046995.7,N
1547179515.4,286046999.6,N
1547179535.2,286046997.1,N
1547179555.0,286046996.9,N
1547179555.9,286046996.9,N
1547179575.8,286046996.5,N
1547179595.6,286046994.9,N
1547179615.4,286046995.3,N
1547179635.3,286046999.6,N
1547179655.1,286046997.4,N
1547179675.8,286046997.8,N
1547179695.7,286046997.7,N
1547179715.5,286046997.7,N
1547179735.4,286046995.9,N
1547179755.2,286046995.9,N
1547179775.0,286046994.0,Y
1547179775.9,286046994.0,P
1547179795.8,286046995.0,N
1547179815.6,286046996.5,N
1547179835.5,286046998.3,N
1547179855.3,286046996.9,N
1547179875.1,286046997.3,N
1547179895.9,286046997.0,N
1547179915.7,286046997.2,N
1547179935.5,286046997.8,N
1547179955.4,286046997.8,N
1547179975.2,286046995.3,Y
1547179995.1,286047000.8,P
1547179996.0,286047000.8,N
1547180015.8,286047001.2,N
1547180035.6,286046998.9,N
1547180055.5,286046998.9,N
1547180075.3,286046998.6,N
1547180095.1,286047002.5,N
1547180115.9,286047002.7,N
1547180135.7,286047003.8,N
1547180155.6,286047004.1,N
1547180175.4,286047002.2,N
1547180195.2,286047002.3,N
1547180215.1,286047001.5,N
1547180216.0,286047001.5,N
1547180235.8,286047002.0,N
1547180255.6,286046999.7,N
1547180275.5,286047002.7,N
1547180295.3,286047002.1,N
1547180315.2,286047000.7,N
1547180335.9,286047000.9,N
1547180355.7,286046999.8,N
1547180375.6,286047002.4,N
1547180395.4,286047000.4,N
1547180415.2,286047000.9,N
1547180435.1,286047002.7,N
1547180436.0,286047002.7,N
1547180455.8,286047001.0,N
1547180475.7,286047000.0,N
1547180495.5,286047001.0,N
1547180515.3,286046999.9,N
1547180535.2,286047001.2,N
1547180555.9,286046998.2,N
1547180575.7,286046998.7,N
1547180595.6,286046999.0,N
1547180615.4,286047001.0,N
1547180635.2,286047001.3,N
1547180655.1,286047000.3,N
1547180656.0,286047000.3,N
1547180675.8,286047004.2,Y
1547180695.7,286047001.6,P
1547180715.5,286047002.5,P
1547180735.3,286047004.1,P
1547180755.2,286047001.6,N
1547180775.0,286047001.6,N
1547180775.9,286047001.6,N
1547180795.8,286047004.4,Y
1547180815.6,286047004.1,P
1547180835.4,286047001.9,N
1547180855.3,286046999.8,N
1547180875.1,286046998.7,N
1547180895.9,286046999.5,N
1547180915.7,286046997.1,N
1547180935.5,286046999.2,N
1547180955.4,286046996.9,N
1547180975.2,286046999.1,N
1547180995.0,286046998.0,N
1547180995.9,286046998.0,N
1547181015.8,286046998.0,N
1547181035.6,286046997.5,N
1547181055.5,286046995.4,N
1547181075.3,286046999.5,N
1547181095.1,286046997.0,N
1547181115.9,286046997.2,N
1547181135.7,286046996.2,N
1547181155.5,286046996.2,N
1547181175.4,286046995.8,N
1547181195.2,286046996.8,N
1547181215.1,286047000.5,N
1547181216.0,286047000.5,N
1547181235.8,286046998.4,N
1547181255.6,286046999.4,N
1547181275.5,286046996.9,N
1547181295.3,286046999.6,N
1547181315.1,286046999.1,N
1547181335.9,286046998.3,N
1547181355.7,286047002.1,N
1547181375.6,286047002.2,N
1547181395.4,286046998.2,N
1547181415.2,286046998.4,N
1547181435.1,286046998.3,N
1547181436.0,286046998.3,N
1547181455.8,286046997.0,N
1547181475.6,286046999.0,N
1547181495.5,286046997.5,N
1547181515.3,286046997.2,N
1547181535.2,286046997.8,N
1547181555.9,286046995.2,N
1547181575.7,286046995.6,N
1547181595.6,286046994.9,N
1547181615.4,286046997.6,N
1547181635.2,286046997.7,N
1547181655.1,286046997.0,N
1547181656.0,286046997.0,N
1547181675.8,286046997.5,N
1547181695.7,286046997.4,N
1547181715.5,286046997.2,N
1547181735.3,286046998.8,N
1547181755.2,286047002.7,N
1547181775.9,286047000.2,N
1547181795.7,286047002.1,N
1547181815.6,286046998.7,N
1547181835.4,286046997.1,N
1547181855.3,286046999.1,N
1547181875.1,286046999.4,N
1547181876.0,286046999.4,N
1547181895.8,286046998.5,N
1547181915.7,286046999.7,N
1547181935.5,286046998.2,N
1547181955.3,286047002.3,N
1547181975.2,286047001.8,N
1547181995.0,286047002.9,N
1547181995.9,286047002.9,N
1547182015.8,286047002.9,N
1547182035.6,286047003.5,N
1547182055.4,286047001.6,N
1547182075.3,286047006.0,N
1547182095.1,286046999.7,N
1547182115.8,286047002.0,N
1547182135.7,286047003.0,N
1547182155.5,286047001.3,N
1547182175.4,286046998.1,N
1547182195.2,286046999.3,N
1547182215.0,286047000.9,N
1547182215.9,286047000.9,N
1547182235.8,286047002.2,N
1547182255.6,286047002.1,N
1547182275.5,286047000.3,N
1547182295.3,286047000.7,N
1547182315.1,286047004.3,N
1547182335.9,286047007.4,Y
1547182355.7,286047003.8,P
1547182375.5,286047003.9,N
1547182395.4,286047002.0,N
1547182415.2,286047003.4,N
1547182435.1,286047001.9,N
1547182436.0,286047001.9,N
1547182455.8,286047002.7,N
1547182475.6,286047001.2,N
1547182495.5,286046998.7,N
1547182515.3,286047002.5,N
1547182535.1,286047008.8,Y
1547182555.9,286047006.6,P
1547182575.7,286047005.0,N
1547182595.6,286047003.6,N
1547182615.4,286046999.8,N
1547182635.2,286047000.5,N
1547182655.1,286046998.7,N
1547182656.0,286046998.7,N
1547182675.8,286046999.7,N
1547182695.6,286047001.2,N
1547182715.5,286046998.2,N
1547182735.3,286047002.5,N
1547182755.1,286047004.1,N
1547182775.9,286047002.3,N
1547182795.7,286047000.8,N
